Wind_Speed
7 7 8 8 7 6 6 6 5 5 5 5 5 5 5 4 4 4 4 3 4 4 4 4 4 4 3 4 4 4 3 3 2 3 3 2 3 3 4 4 3 3 2
8 9 9 8 8 8 7 6 6 6 5 5 5 5 5 5 5 5 4 4 4 5 5 5 5 4 4 4 4 4 4 4 3 3 3 3 3 3 3 4 4 3 2
9 9 9 10 9 9 8 8 7 7 6 6 6 6 6 5 5 5 5 5 5 5 6 5 5 5 5 5 5 5 5 4 4 4 4 4 3 3 4 4 4 4 3
10 9 10 10 9 9 9 9 8 8 7 7 6 6 6 6 6 6 6 5 6 6 5 6 5 5 6 6 6 6 6 6 5 5 5 5 4 4 5 5 5 5 4
10 10 9 10 10 9 10 10 9 9 9 9 8 7 7 7 6 6 6 7 6 6 6 6 6 6 6 7 7 7 7 7 7 7 6 6 5 6 6 6 5 5 5
10 11 11 11 10 10 10 10 10 10 10 10 9 8 8 8 8 7 8 8 8 7 7 7 7 7 7 7 7 7 7 7 8 8 7 7 6 7 7 7 6 6 7
12 12 12 11 11 10 10 11 11 11 11 11 11 10 10 10 9 9 8 8 8 8 8 8 8 8 7 7 7 7 7 8 9 9 9 8 7 8 8 8 7 7 7
13 12 12 12 12 11 11 11 11 12 12 12 12 12 11 11 10 10 10 10 9 9 9 9 9 8 8 8 8 8 8 9 9 9 9 10 9 9 8 9 9 8 8
13 13 12 12 11 11 11 11 11 11 12 13 13 12 11 11 11 11 11 10 10 10 10 10 9 9 10 9 9 9 9 9 9 9 9 9 9 10 9 10 10 9 9
14 13 13 12 11 11 11 11 11 12 12 12 13 13 12 11 11 11 11 11 10 10 10 10 10 10 10 10 9 9 9 9 9 9 9 10 10 11 11 11 11 10 10
15 13 13 12 12 12 12 12 12 12 12 12 13 13 12 11 11 11 12 11 11 10 10 10 10 10 11 10 9 9 10 9 8 9 9 9 10 11 11 11 11 11 11
15 14 12 11 13 12 12 12 12 11 11 12 13 13 12 12 12 11 12 11 11 11 10 10 10 10 10 11 10 11 10 9 8 9 9 9 10 10 10 11 11 11 12
15 14 13 12 13 13 13 13 12 12 12 13 13 13 12 12 11 11 11 12 12 12 12 12 11 11 11 11 11 11 10 9 9 10 10 9 11 11 11 11 11 12 12
14 14 14 14 13 14 14 13 13 12 13 13 13 12 12 11 11 12 12 11 11 11 11 12 13 12 12 12 12 11 11 10 10 10 10 11 11 12 11 12 12 13 13
15 15 15 15 15 14 15 14 13 12 12 13 12 12 12 11 10 11 11 12 12 12 12 12 13 14 14 13 12 12 12 11 11 11 11 12 13 13 12 12 13 14 14
16 15 14 14 15 15 15 14 13 13 13 13 12 12 11 11 11 11 12 12 12 13 13 12 12 13 13 13 13 12 12 11 11 12 12 12 13 13 13 13 13 14 14
16 15 15 15 15 15 15 15 15 14 13 13 12 12 11 11 12 11 12 13 12 12 13 13 13 13 13 13 14 13 12 12 12 13 13 12 12 12 13 14 14 14 14
16 15 15 15 15 15 15 15 15 14 13 12 11 11 11 11 11 12 13 13 13 13 14 14 14 14 13 13 14 14 13 13 12 13 12 13 12 12 14 14 14 14 14
15 14 15 15 15 15 15 15 15 14 13 12 11 11 12 11 12 12 13 13 13 13 13 13 13 13 13 13 13 14 14 14 13 13 12 13 12 12 14 15 15 15 15
15 15 14 15 15 15 15 14 14 14 13 12 12 12 12 12 12 12 13 13 13 13 13 13 14 13 13 13 14 14 14 14 14 13 13 13 14 14 14 15 16 16 16
14 14 14 15 14 13 13 14 13 13 12 12 12 12 12 12 12 12 12 13 13 13 13 13 13 14 13 13 13 15 15 14 14 13 14 15 15 16 15 15 16 17 17
15 15 14 14 14 13 13 13 12 12 12 12 12 12 13 13 13 13 12 13 13 13 13 13 13 13 13 14 14 15 15 14 14 15 15 16 17 17 17 16 16 18 19
15 14 14 14 14 14 14 14 12 12 12 12 12 13 12 12 13 13 13 13 12 12 13 13 13 13 14 14 14 15 15 15 16 16 17 17 18 19 18 18 17 18 19
15 14 13 13 14 13 13 13 12 12 11 11 12 12 12 11 12 12 12 12 11 12 13 14 14 14 14 14 14 15 15 15 16 16 17 18 19 20 20 19 19 19 19
14 13 12 12 13 12 12 11 11 11 11 11 11 12 11 11 11 11 11 12 12 12 13 14 14 14 14 15 15 16 16 15 16 16 16 17 18 19 19 19 20 19 19
13 13 12 11 11 10 10 10 11 11 11 11 12 11 11 11 11 11 11 11 12 13 13 13 14 14 15 16 16 16 16 16 17 17 17 17 17 17 18 19 19 19 19
Wind_Direction
300 290 289 288 285 282 284 289 285 283 277 271 265 257 259 258 253 249 249 247 238 229 223 222 218 218 226 224 210 203 200 197 192 194 183 177 171 169 169 166 158 150 151
302 294 288 285 284 283 283 285 281 277 276 273 268 262 261 261 254 247 243 241 238 233 227 227 226 225 233 232 222 214 221 220 210 200 199 182 180 184 177 172 175 176 182
303 295 289 285 282 282 281 280 278 273 273 274 271 270 265 260 255 248 239 237 238 236 233 230 229 232 230 230 230 226 228 222 216 216 211 199 201 209 200 192 193 197 202
303 299 294 285 282 281 280 279 275 270 274 270 269 271 269 265 257 250 241 238 238 238 237 230 234 231 232 232 233 235 233 232 231 224 218 217 212 213 209 210 210 212 221
303 300 297 291 288 286 282 279 274 269 269 268 266 266 267 267 263 251 245 243 241 236 235 236 240 236 233 231 232 236 241 241 239 230 227 219 215 214 220 221 220 222 230
304 300 296 295 291 288 286 281 277 271 267 267 264 261 261 263 263 252 245 243 241 236 235 240 243 245 239 232 235 240 245 244 241 239 236 237 228 225 228 231 233 232 230
306 299 293 292 295 290 286 283 279 274 270 267 264 260 256 256 260 257 247 242 241 239 237 240 246 247 245 238 238 241 244 245 243 243 245 244 237 235 235 238 239 244 240
307 299 291 290 291 289 289 286 281 279 273 270 266 264 257 255 257 255 249 244 241 240 240 239 244 244 243 244 243 244 244 245 248 252 246 245 239 240 244 243 243 248 248
304 295 290 291 292 290 289 286 282 279 275 271 269 270 265 260 256 256 250 243 239 242 245 244 243 241 244 245 248 248 248 247 248 250 249 247 244 238 242 246 245 250 250
304 297 290 288 289 290 288 285 283 278 275 272 270 269 265 262 257 253 245 241 239 242 247 247 247 243 243 247 250 251 247 243 251 253 249 248 246 241 242 246 248 252 251
304 299 293 289 289 290 288 287 287 280 273 272 271 268 265 263 259 251 239 241 241 243 248 249 253 249 249 250 252 254 249 247 246 248 247 251 253 247 245 250 248 251 251
305 299 292 296 294 290 288 287 286 282 278 277 275 273 268 262 258 251 239 240 241 242 245 249 250 249 251 252 250 250 253 249 247 250 246 250 255 258 256 255 254 252 252
302 299 298 298 298 295 290 287 285 285 283 281 277 278 268 262 254 248 245 242 243 242 244 250 252 251 251 250 251 250 253 257 253 256 255 257 256 259 261 257 255 253 256
300 298 299 301 299 299 296 291 287 286 286 284 278 277 269 263 254 249 247 245 247 246 249 252 250 252 251 251 252 253 257 259 260 258 257 261 263 263 261 258 256 256 255
295 295 298 299 299 299 296 293 290 287 286 286 281 278 267 259 255 252 249 251 255 255 256 254 253 256 255 253 253 256 262 261 267 262 263 265 266 265 260 257 255 255 254
294 296 296 297 297 295 292 291 292 289 288 288 283 277 263 258 259 258 257 257 256 260 260 261 261 260 259 259 258 257 264 267 265 264 263 266 266 262 256 255 255 255 252
290 291 294 295 296 296 292 291 292 291 287 286 280 273 264 260 262 262 259 258 258 260 260 260 261 264 264 263 260 261 263 267 266 267 268 271 269 260 256 256 256 257 256
286 287 291 291 292 293 292 292 291 289 286 284 279 271 267 262 263 262 260 261 263 261 259 258 259 262 263 262 258 261 263 268 267 270 270 270 268 261 258 257 257 258 255
285 284 286 290 291 292 290 290 288 288 286 282 278 270 267 265 267 265 264 263 268 268 263 260 261 261 258 258 261 265 265 268 267 269 268 268 266 264 258 256 256 257 257
283 282 283 289 291 291 290 288 286 286 284 280 275 271 270 271 269 267 267 268 271 272 266 262 264 263 259 259 263 263 266 267 266 266 269 267 265 265 263 258 256 256 258
285 286 286 289 291 291 289 287 284 282 279 277 275 274 275 274 272 270 272 272 272 273 269 266 264 264 261 263 266 266 266 266 265 265 271 271 268 267 267 264 259 258 259
282 284 286 287 287 287 288 286 282 280 279 277 277 276 278 277 273 270 275 274 273 273 271 272 271 266 265 268 268 269 268 267 266 268 269 269 269 268 269 265 261 260 261
285 289 290 286 286 284 285 283 282 281 280 279 279 280 280 279 279 275 277 277 275 276 272 271 273 267 266 267 269 270 271 269 272 272 272 271 272 271 270 266 264 263 262
284 285 286 288 290 286 284 283 282 283 282 282 284 285 283 281 282 278 276 275 274 277 277 274 273 269 269 269 268 271 274 273 274 275 274 274 274 272 269 267 266 265 265
284 288 290 287 292 288 281 279 282 284 284 286 286 285 282 280 280 280 280 276 274 277 279 278 276 272 271 271 272 273 273 274 276 278 276 277 277 273 268 267 266 265 265
284 290 292 289 291 295 285 280 281 284 284 286 288 286 286 282 279 283 285 281 278 277 279 278 277 275 274 275 275 275 274 273 275 277 277 278 280 276 271 266 265 266 267
Height
5879 5878 5877 5877 5876 5876 5876 5875 5875 5875 5875 5874 5874 5874 5874 5873 5873 5873 5873 5873 5873 5873 5873 5874 5874 5874 5875 5875 5875 5876 5876 5876 5877 5877 5878 5879 5879 5880 5881 5882 5883 5884 5885
5878 5877 5876 5876 5875 5875 5875 5874 5874 5874 5873 5873 5873 5873 5873 5873 5872 5872 5872 5872 5872 5872 5873 5873 5874 5874 5874 5875 5875 5875 5876 5876 5876 5877 5878 5879 5880 5880 5881 5882 5883 5884 5885
5877 5875 5875 5874 5874 5874 5873 5873 5872 5872 5872 5872 5872 5872 5872 5871 5871 5871 5872 5872 5872 5872 5872 5873 5873 5873 5873 5874 5874 5874 5875 5876 5876 5877 5878 5879 5880 5880 5881 5882 5883 5884 5885
5876 5874 5874 5873 5872 5872 5871 5871 5871 5871 5871 5871 5871 5871 5870 5870 5870 5870 5871 5871 5871 5871 5872 5872 5872 5872 5872 5873 5873 5873 5874 5875 5875 5876 5877 5878 5879 5880 5881 5882 5883 5884 5885
5874 5873 5872 5871 5871 5870 5870 5869 5869 5869 5869 5869 5869 5869 5869 5869 5869 5869 5869 5869 5870 5870 5870 5871 5871 5871 5871 5872 5872 5872 5873 5874 5874 5876 5876 5877 5878 5879 5880 5881 5882 5883 5884
5873 5872 5871 5870 5869 5869 5868 5867 5867 5867 5867 5867 5867 5867 5867 5867 5868 5868 5868 5868 5868 5869 5869 5869 5870 5870 5870 5870 5871 5871 5872 5873 5874 5875 5876 5876 5877 5878 5880 5881 5881 5882 5883
5871 5870 5869 5868 5867 5867 5866 5866 5865 5865 5865 5865 5865 5865 5865 5865 5865 5865 5866 5866 5866 5867 5867 5868 5868 5869 5869 5869 5870 5870 5871 5871 5872 5873 5874 5875 5876 5877 5878 5879 5881 5882 5883
5869 5867 5866 5866 5865 5865 5864 5864 5863 5863 5863 5863 5863 5863 5863 5863 5863 5863 5864 5864 5864 5865 5866 5866 5867 5867 5867 5868 5868 5869 5869 5870 5871 5872 5872 5873 5873 5875 5877 5878 5879 5880 5881
5866 5865 5864 5864 5863 5862 5862 5861 5861 5861 5860 5860 5860 5860 5860 5860 5861 5861 5861 5862 5862 5863 5864 5864 5865 5865 5865 5866 5866 5867 5868 5868 5869 5870 5871 5871 5871 5873 5875 5876 5877 5878 5879
5864 5862 5862 5861 5861 5860 5860 5859 5859 5858 5858 5858 5858 5858 5858 5858 5858 5858 5859 5859 5860 5861 5861 5862 5863 5863 5863 5864 5865 5865 5866 5867 5867 5869 5870 5870 5870 5870 5872 5874 5875 5876 5877
5860 5859 5859 5859 5859 5858 5857 5857 5856 5856 5856 5856 5856 5855 5855 5855 5855 5856 5856 5857 5858 5858 5859 5860 5860 5861 5861 5862 5863 5863 5864 5865 5866 5867 5868 5869 5868 5868 5870 5872 5873 5874 5875
5859 5858 5857 5857 5856 5856 5855 5854 5854 5854 5854 5853 5853 5853 5853 5853 5853 5853 5854 5855 5855 5856 5857 5858 5858 5859 5859 5860 5861 5861 5862 5862 5864 5864 5865 5867 5867 5867 5869 5870 5871 5872 5873
5857 5856 5855 5855 5854 5853 5853 5852 5852 5852 5851 5851 5850 5850 5849 5850 5850 5851 5852 5852 5853 5854 5855 5855 5856 5857 5857 5858 5859 5860 5860 5861 5862 5862 5863 5864 5865 5866 5867 5868 5868 5869 5871
5855 5854 5853 5852 5852 5851 5850 5849 5849 5849 5849 5848 5847 5847 5846 5847 5847 5848 5849 5850 5851 5852 5852 5853 5854 5854 5855 5856 5857 5857 5858 5858 5860 5860 5861 5862 5862 5863 5864 5865 5866 5867 5868
5853 5852 5850 5850 5849 5848 5847 5847 5847 5846 5846 5845 5845 5844 5844 5845 5845 5846 5847 5848 5849 5850 5850 5850 5851 5852 5853 5853 5854 5855 5856 5856 5857 5858 5859 5859 5860 5861 5862 5863 5863 5863 5865
5849 5849 5848 5848 5847 5845 5844 5844 5844 5843 5843 5843 5842 5842 5842 5842 5843 5843 5844 5845 5846 5847 5847 5848 5848 5849 5850 5851 5851 5852 5853 5854 5854 5855 5856 5856 5857 5857 5858 5859 5860 5861 5862
5846 5846 5845 5845 5844 5843 5841 5841 5841 5841 5840 5840 5840 5840 5839 5840 5840 5841 5842 5843 5843 5843 5844 5845 5845 5846 5847 5848 5848 5849 5850 5851 5851 5852 5852 5853 5853 5854 5855 5856 5857 5857 5858
5843 5843 5842 5842 5841 5840 5839 5839 5839 5838 5838 5837 5837 5837 5837 5837 5838 5839 5840 5840 5840 5840 5841 5842 5842 5843 5844 5844 5845 5846 5847 5848 5848 5848 5849 5849 5850 5850 5851 5852 5853 5854 5855
5840 5840 5840 5839 5839 5838 5837 5836 5836 5835 5835 5835 5835 5835 5835 5835 5836 5837 5837 5837 5838 5838 5838 5839 5839 5840 5840 5841 5843 5843 5844 5844 5845 5845 5845 5846 5846 5847 5847 5848 5849 5850 5851
5837 5837 5837 5836 5836 5835 5834 5834 5833 5833 5832 5832 5833 5833 5833 5833 5834 5834 5834 5835 5835 5835 5835 5836 5836 5837 5837 5838 5839 5840 5840 5841 5841 5841 5841 5842 5842 5843 5843 5844 5845 5846 5847
5834 5834 5834 5833 5833 5832 5831 5831 5831 5830 5830 5830 5830 5830 5831 5831 5831 5831 5832 5832 5832 5832 5832 5832 5833 5834 5834 5835 5835 5836 5836 5837 5837 5837 5837 5838 5838 5838 5839 5840 5840 5841 5842
5832 5831 5831 5831 5831 5830 5829 5829 5829 5828 5828 5828 5828 5828 5828 5828 5828 5828 5828 5829 5829 5829 5829 5829 5830 5830 5831 5831 5832 5832 5832 5833 5833 5833 5833 5833 5834 5834 5834 5835 5835 5836 5837
5829 5829 5828 5828 5827 5827 5827 5826 5826 5826 5826 5825 5825 5825 5825 5825 5825 5825 5825 5826 5826 5826 5826 5827 5827 5827 5827 5828 5828 5828 5828 5829 5829 5829 5829 5829 5829 5829 5829 5830 5830 5831 5833
5827 5827 5826 5825 5824 5824 5824 5824 5824 5824 5823 5823 5823 5823 5823 5823 5822 5822 5822 5823 5823 5823 5823 5823 5824 5824 5824 5824 5824 5824 5824 5824 5825 5825 5824 5824 5824 5824 5824 5825 5826 5827 5828
5824 5824 5823 5822 5822 5821 5821 5822 5822 5821 5821 5821 5821 5821 5820 5820 5820 5820 5819 5819 5820 5820 5820 5820 5820 5820 5821 5821 5821 5820 5820 5820 5820 5820 5820 5819 5819 5819 5819 5820 5820 5821 5823
5821 5821 5821 5820 5819 5819 5819 5819 5819 5819 5819 5819 5819 5818 5818 5818 5817 5817 5817 5817 5817 5817 5816 5817 5817 5817 5817 5817 5817 5816 5816 5816 5816 5815 5815 5815 5814 5814 5814 5815 5816 5817 5817